Regional Weather Roundup
Issued by NWS

Home | Current Version | Previous Version | Text Only | Print | Product List | Glossary On
Versions: 1 2 3 4 5 6 7 8 9 10 11 12 13 14 15 16 17 18 19 20 21 22 23 24 25 26 27 28 29 30 31 32 33 34 35 36 37 38 39 40 41 42 43 44 45 46 47 48 49 50
000
ASUS44 KLUB 061201
RWRTX
WEST TEXAS WEATHER ROUNDUP
NATIONAL WEATHER SERVICE LUBBOCK TX
700 AM CDT WED MAY 06 2015

NOTE: "FAIR" INDICATES FEW OR NO CLOUDS BELOW 12,000 FEET WITH NO
SIGNIFICANT WEATHER AND/OR OBSTRUCTIONS TO VISIBILITY.

TXZ004-006>008-010-012-014-016-OKZ002-061300-
TEXAS PANHANDLE/OKLAHOMA PANHANDLE

CITY           SKY/WX    TMP DP  RH WIND       PRES   REMARKS
AMARILLO       CLEAR     53  48  83 S15       29.81S
BORGER         CLEAR     58  51  78 S16G24    29.77S
DALHART        CLEAR     50  46  86 SW15      29.76S
GUYMON         CLEAR     52  49  89 S10       29.71S
$$

TXZ026-029-035-045-048-061300-
SOUTHERN PANHANDLE/SOUTH PLAINS/ROLLING PLAINS

CITY           SKY/WX    TMP DP  RH WIND       PRES   REMARKS
CHILDRESS      CLOUDY    63  62  97 S10       29.85R
LUBBOCK        MOCLDY    63  59  87 SW21      29.86R
$$

TXZ052-054-060>062-072-078-127-140-154-169-061300-
PERMIAN BASIN/CONCHO VALLEY/BIG COUNTRY/EDWARDS PLATEAU

CITY           SKY/WX    TMP DP  RH WIND       PRES   REMARKS
ABILENE        MOCLDY    68  65  90 S10       29.90R
JUNCTION       CLOUDY    70  66  87 SE3       29.92R
MIDLAND        CLOUDY    67  63  87 S10       29.89R FOG
ODESSA         CLOUDY    67  62  84 S16       29.90R
SAN ANGELO     CLEAR     66  63  90 CALM      29.89R
WINK           FOG       60  57  89 SE5       29.87R VSB 3/4
$$

TXZ055-058-074-075-080-082-061300-
FAR WEST/SOUTHWEST MOUNTAINS/TRANS PECOS

CITY           SKY/WX    TMP DP  RH WIND       PRES   REMARKS
DRYDEN           N/A     72  67  84 E7        29.87R
EL PASO        PTCLDY    62  39  42 S6        29.93S
FORT STOCKTON  CLEAR     62  60  93 S9        29.90R
MARFA          CLEAR     39  30  70 N7        30.02R WCI  34
$$

TXZ014-016-019-021>030-083-061300
TEXAS TECH WEST TEXAS MESONET/TEXAS PANHANDLE/NORTHERN SOUTH PLAINS

CITY           SKY/WX    TMP DP  RH WIND       PRES   REMARKS
ABERNATHY 5ENE   N/A     61  58  91 SW13      29.88S
AMARILLO 9NNE    N/A     55  47  75 S8        29.79R
AMARILLO 7SSE    N/A     49  47  93 S6        29.83S
AMHERST 1NE      N/A     54  53  97 S13       29.87R
BOOTLEG 11WNW    N/A     51  44  77 SW15      29.85S
CANADIAN 6E      N/A     60  59  97 S13       29.77S
CAPROCK CYN SP   N/A     63  60  90 SW14      29.84R
CHILDRESS 2NNE   N/A     64  61  93 S15       29.83R
CLARENDON 2WSW   N/A     60  58  91 S13       29.82S
CLAUDE 12SW      N/A     55  48  78 S10       29.83R
DIMMITT 2NE      N/A     50  46  86 S15       29.84S
FLOYDADA 2NNE    N/A     62  59  91 SW17      29.86R
FRIONA 2NE       N/A     51  46  84 SW13      29.86R
GOODLETT 3W      N/A     65  62  90 S12       29.83R
HART 3N          N/A     51  47  87 S9        29.85S
HEREFORD 2NW     N/A     50  45  81 S8        29.83R
MCLEAN 1E        N/A     60  59  97 S14       29.81R
MEMPHIS 1NE      N/A     62  61  97 SE5       29.83R
MULESHOE 2SSW    N/A     51  47  86 S12       29.86S
OLTON 6S         N/A     55  54  94 SW16      29.86R
PALO DURO SP     N/A     54  48  78 S9        29.83R
PAMPA 2E         N/A     57  56  97 S15       29.81R
PLAINVIEW 1S     N/A     60  58  95 SW15      29.85R
SILVERTON 7ESE   N/A     61  58  89 SW17      29.85R
TULIA 2ENE       N/A     55  53  94 SW15      29.84R
TURKEY 2WSW      N/A     65  61  87 SW16      29.82S
UMBARGER 3NNE    N/A     50  46  88 S12       29.82F
$$

TXZ033>036-039>041-045>048-061300
TEXAS TECH WEST TEXAS MESONET/SOUTH PLAINS

CITY           SKY/WX    TMP DP  RH WIND       PRES   REMARKS
AIKEN 3WSW       N/A     59  58  96 SW14      29.87R
ANDREWS 2NE      N/A     64  60  88 S12       29.89S
ANTON 6SSW       N/A     59  58  94 SW12      29.87S
BROWNFIELD 2S    N/A     61  59  92 S15       29.88R
DENVR CTY 7WNW   N/A     59  58  94 S17       29.89R
GAIL 2ESE        N/A     64  61  91 S8        29.87S
LAMESA 2SE       N/A     63  61  95 S10       29.89S
LEVELLAND 4S     N/A     60  57  89 SW13      29.88R
LUBBOCK 3WNW     N/A     62  58  86 SW15      29.87R
MORTON 1ENE      N/A     54  53  96 S10       29.88R
ODONNELL 1N      N/A     61  59  93 S13       29.87S
PLAINS 3N        N/A     59  58  94 S13       29.89R
RALLS 1SE        N/A     63  60  92 SW23      29.87R
REESE CENTER     N/A     61  59  91 SW13      29.87R
SEAGRAVES 1SW    N/A     62  61  97 S17       29.88S
SEMINOLE 2NNE    N/A     63  60  91 S15       29.89R
SLATON 2NE       N/A     64  60  90 S23       29.87R
SNYDER 3E        N/A     63  62  97 S10       29.88S
SUNDOWN 8SW      N/A     59  57  92 SW14      29.88R
TAHOKA 3NNE      N/A     63  61  93 S14       29.87R
WOLFFORTH 6SSW   N/A     62  61  97 S20       29.87S
$$

TXZ031-032-036>038-042>044-061300-
TEXAS TECH WEST TEXAS MESONET/ROLLING PLAINS

CITY           SKY/WX    TMP DP  RH WIND       PRES   REMARKS
ASPERMONT 3NE    N/A     65  63  93 S12       29.85R
FLUVANNA 3WNW    N/A     63  61  94 S13       29.88R
GRAHAM 5SSW      N/A     64  60  87 S18       29.86S
GUTHRIE 10WSW    N/A     63  61  93 SE5       29.85R
HASKELL 1NW      N/A     65  63  94 SE9       29.86S
JAYTON 1SSE      N/A     64  62  92 S6        29.86R
KNOX CITY 3NW    N/A     65  61  87 S9        29.86R
LK A HENRY 1NW   N/A     64  63  94 SW7       29.86R
NORTHFIELD 1S    N/A     65  62  90 SW12      29.83R
ODELL 4ENE       N/A     66  64  96 S10       29.85R
PADUCAH 10SW     N/A     62  61  96 S10       29.85R
POST 1NE         N/A     65  61  88 S15       29.85F
RRING SPRGS 3N   N/A     64  62  92 S18G29    29.85R
SEYMOUR 3NW      N/A     67  64  88 SE12      29.86R
SPUR 1W          N/A     64  61  90 S5        29.85S
WEINERT 2NNE     N/A     65  63  94 S13       29.86R
WHITE RVR 6NE    N/A     64  61  90 S13       29.86R
$$

TXZ052-054-060>062-072-078-127-140-154-169-061300-
TEXAS TECH WEST TEXAS MESONET/PERMIAN BASIN/
CONCHO VALLEY/BIG COUNTRY/EDWARDS PLATEAU

CITY           SKY/WX    TMP DP  RH WIND       PRES   REMARKS
COYANOSA 2N      N/A     58  57  96 S1        29.89R
JUNCTION 1SSW    N/A     70  66  87 S2        29.92R
MERTZON 3NNE     N/A     68  65  89 S12       29.90R
SAN ANGELO 7NW   N/A     64  62  91 E5        29.89S
STRLNG CT 4WSW   N/A     66  64  95 N1        29.91R
SWEETWATR 11SW   N/A     66  64  96 S9        29.92R
WALL 1E          N/A     62  59  89 E5        29.90R
$$

TXZ055-058-074-075-080-082-061300-
TEXAS TECH WEST TEXAS MESONET/FAR WEST/SOUTHWEST MOUNTAINS/TRANS PECOS

CITY           SKY/WX    TMP DP  RH WIND       PRES   REMARKS
PRSMN GAP BBNP   N/A     67  63  85 N10       29.90S
$$



USA.gov is the U.S. government's official web portal to all federal, state and local government web resources and services.